Home   Weather   Sierra Vista   Past weeks

Flag for USA Past Weather in Sierra Vista, Arizona, USA — Yesterday and Last 2 Weeks

Now
60 °F

Passing clouds.


Feels Like: 60 °F
Forecast: 57 / 81 °F
Wind: 12 mph from Southeast

Location: Fort Huachuca

Current Time: Sep 27, 2016 at 10:10:17 PM

Latest Report: Sep 27, 2016 at 8:58 PM


Visibility: 10 mi

Pressure: 30.01 "Hg (25.46 "Hg at 1390m altitude)

Humidity: 92%

Dew Point: 58 °F

Location of Sierra VistaLocation

Past Weather in Sierra Vista — Graph

°F

Sierra Vista Temperature Yesterday

Maximum temperature yesterday: 64 °F (at 1:58 AM)
Minimum temperature yesterday: 54 °F (at 9:58 AM)
Average temperature yesterday: 58 °F

High & Low Weather Summary for the Past Weeks

 TemperatureHumidityPressure
High90 °F (Sep 18, 2:58 PM)100% (Sep 27, 5:59 AM)30.25 "Hg (Sep 27, 5:59 AM)
Low52 °F (Sep 27, 5:59 AM)15% (Sep 16, 2:58 PM)29.76 "Hg (Sep 22, 2:58 PM)
Average70 °F48%29.96 "Hg
* Reported Sep 12 8:58 PM — Sep 27 8:58 PM, Sierra Vista, Weather by CustomWeather, © 2016

Note: Actual official high and low records may vary slightly from our data, if they occured in-between our weather recording intervals... More about our weather records

Advertising

Sierra Vista Weather History for the Previous 24 Hours

Scroll right to see more
 ConditionsComfort  
Time TempWeatherWind HumidityBarometerVisibility
8:58 PM
Tue, Sep 27
60 °FPassing clouds.12 mph92%30.01 "Hg10 mi
7:58 PM61 °FPassing clouds.9 mph91%30.00 "Hg10 mi
7:01 PM63 °FOvercast.12 mph77%30.11 "Hg10 mi
6:58 PM64 °FThundershowers. Overcast.14 mph69%29.97 "Hg10 mi
5:58 PM68 °FPassing clouds.3 mph66%29.93 "Hg7 mi
4:58 PM73 °FPassing clouds.8 mph51%29.91 "Hg9 mi
3:58 PM74 °FPartly sunny.6 mph50%29.93 "Hg10 mi
2:58 PM70 °FPartly sunny.7 mph58%29.95 "Hg10 mi
1:58 PM71 °FBroken clouds.9 mph57%29.97 "Hg10 mi
12:58 PM67 °FPartly sunny.8 mph64%30.01 "Hg10 mi
11:58 AM65 °FPartly sunny.13 mph64%30.03 "Hg10 mi
10:58 AM64 °FPartly sunny.9 mph64%30.06 "Hg10 mi
9:58 AM57 °FPartly sunny.5 mph83%30.11 "Hg10 mi
9:03 AM54 °FScattered showers. More clouds than sun.7 mph94%30.23 "Hg10 mi
8:03 AM52 °FThundershowers. Mostly cloudy.2 mph100%30.23 "Hg8 mi
7:58 AM52 °FThundershowers. Cloudy.3 mph96%30.11 "Hg7 mi
7:00 AM52 °FThunderstorms. More clouds than sun.5 mph100%30.20 "Hg9 mi
5:59 AM52 °FThunderstorms. Partly cloudy.8 mph100%30.19 "Hg10 mi
5:58 AM52 °FThundershowers. Partly cloudy.7 mph95%30.07 "Hg10 mi
5:01 AM54 °FLight rain. Mostly cloudy.7 mph88%30.19 "Hg10 mi
4:58 AM54 °FThundershowers. Mostly cloudy.7 mph89%30.06 "Hg10 mi
3:58 AM54 °FPartly cloudy.10 mph80%30.02 "Hg10 mi
2:58 AM53 °FPassing clouds.9 mph83%30.04 "Hg10 mi
1:58 AM54 °FPassing clouds.10 mph80%30.05 "Hg10 mi
12:58 AM55 °FPassing clouds.13 mph76%30.06 "Hg10 mi
11:58 PM
Mon, Sep 26
55 °FPassing clouds.16 mph76%30.09 "Hg10 mi
10:58 PM56 °FClear.14 mph74%30.09 "Hg10 mi
Weather by CustomWeather, © 2016

See weather overviewHow to use our weather pages